Overview Statistics Trail Chart Weather Telemetry Raw packets
 

This is the latest recevied weather packets stored in our database for station/object KF6RAL-6. If no packets are shown the sender has not sent any weather packets the latest 10 day(s).

<< 28 29 30 31 32 33 34 >>
Time Temp. Humidity Pressure Rain* Wind** Luminosity Snow
1788404159 23.33° C 27% 1010.4 hPa 0 mm - - -
1788403738 23.89° C 25% 1010.1 hPa 0 mm - - -
1788403317 23.89° C 26% 1009.9 hPa 0 mm - - -
1788402476 23.89° C 26% 1009.9 hPa 0 mm - - -
1788402054 23.89° C 26% 1009.9 hPa 0 mm - - -
1788401633 23.89° C 26% 1009.8 hPa 0 mm - - -
1788401212 24.44° C 32% 1009.8 hPa 0 mm - - -
1788400791 24.44° C 34% 1009.7 hPa 0 mm - - -
1788400370 24.44° C 36% 1009.6 hPa 0 mm - - -
1788399951 25° C 37% 1009.3 hPa 0 mm - - -
1788399528 25° C 34% 1009.6 hPa 0 mm - - -
1788399107 25° C 36% 1009.4 hPa 0 mm - - -
1788398686 25° C 37% 1010.2 hPa 0 mm - - -
1788398265 25.56° C 37% 1010.2 hPa 0 mm - - -
1788397846 25.56° C 33% 1009.1 hPa 0 mm - - -
1788397423 26.11° C 30% 1009.9 hPa 0 mm - - -
1788397002 26.11° C 31% 1009.8 hPa 0 mm - - -
1788396581 26.67° C 29% 1009.8 hPa 0 mm - - -
1788396170 28.89° C 22% 1009.3 hPa 0 mm - - -
1788395739 28.89° C 15% 1009.4 hPa 0 mm - - -
1788395318 28.89° C 14% 1009.5 hPa 0 mm - - -
1788394898 28.89° C 14% 1009.6 hPa 0 mm - - -
1788394476 28.89° C 14% 1009.5 hPa 0 mm - - -
1788394055 28.89° C 14% 1009.6 hPa 0 mm - - -
1788393634 28.89° C 14% 1009.5 hPa 0 mm - - -

* Rain latest hour (hover to see other rain measurements)
** Current wind speed in m/s (hover to see current wind gust speed)